Temp
8 8 8 8 8 8 7 7 7 7 7 7 8 8 8 8 8 7 6 6 5 6 6 6 6 6 6 6 5 6 6 5 5 5 5 5 5 5 5 6 6 5 5 5 5 5 5 6 6 6 6 6 6 7 7 7 7 7 7 6 7 7 7 6 6 6 6 6 6 6 6 6 5 5 5 5 4 4 4 4 4 5 5 5 5 5
8 9 8 8 8 7 7 7 7 7 7 7 8 8 8 8 8 7 6 6 6 6 7 6 6 7 7 6 6 6 6 6 5 5 5 5 5 5 5 6 6 5 5 5 6 5 5 6 6 6 6 6 6 6 7 7 7 7 6 6 6 6 6 6 6 6 6 6 6 6 6 6 5 5 5 5 4 4 4 4 4 4 5 4 5 5
9 8 8 8 8 8 7 8 7 7 7 8 8 8 9 8 8 7 6 6 6 6 7 7 7 8 7 6 6 6 6 5 5 5 5 5 5 5 5 6 6 5 5 5 6 6 6 6 6 6 6 6 6 6 7 7 7 7 6 6 6 6 6 6 6 6 6 6 6 6 6 5 5 5 5 5 4 4 4 4 4 4 5 4 5 5
9 8 8 8 8 8 8 8 7 7 8 8 9 9 9 8 8 8 7 7 6 7 7 7 7 8 7 7 6 6 6 6 5 6 5 6 6 5 5 6 6 6 5 5 6 6 6 6 6 6 6 6 6 6 6 7 7 6 6 6 6 6 6 6 6 6 6 6 6 6 6 5 5 5 5 5 4 4 4 4 4 4 4 4 5 5
9 8 8 8 8 8 8 8 8 8 9 8 8 9 9 8 8 8 7 7 7 7 7 7 8 9 8 7 7 7 7 6 6 6 6 6 6 6 6 6 6 6 5 5 5 6 6 6 6 6 6 6 6 6 6 6 6 6 6 6 6 6 6 6 6 6 6 6 6 6 6 5 5 5 5 4 4 4 4 4 4 4 4 4 5 4
9 8 8 8 8 8 8 8 8 9 9 9 8 8 8 8 8 8 7 7 8 9 8 7 9 10 9 8 8 7 7 7 7 7 7 6 6 6 6 6 6 6 6 5 5 6 6 6 6 6 6 6 6 6 6 6 6 6 6 6 6 6 6 6 6 6 6 6 6 6 6 5 5 4 4 4 4 4 4 4 4 4 4 4 4 4
9 8 8 8 8 8 8 9 8 8 10 10 8 7 7 7 8 8 7 8 9 9 8 8 9 11 10 9 8 7 7 7 7 7 7 6 6 7 6 6 6 6 5 5 5 6 6 6 6 6 6 6 6 6 6 6 6 6 6 6 6 6 6 6 6 6 6 6 6 6 5 5 5 4 4 4 4 4 4 4 4 4 4 4 4 4
9 9 9 8 8 9 9 9 8 8 9 9 8 8 7 7 8 8 8 9 9 9 9 8 9 11 11 9 8 8 8 8 7 7 7 6 6 7 7 6 6 6 6 6 6 6 6 6 6 6 6 6 6 6 6 6 6 6 6 6 6 6 6 6 6 6 6 6 6 6 5 5 5 4 4 4 4 4 4 4 4 4 4 4 4 4
9 9 9 8 9 10 9 9 8 8 9 9 8 8 8 7 7 8 8 9 9 9 10 9 9 10 11 10 8 8 9 9 8 8 7 7 6 7 7 6 6 7 7 6 6 6 6 6 6 6 6 6 6 6 6 6 6 6 6 6 6 5 6 6 5 5 6 6 6 6 5 5 5 4 4 4 4 4 4 4 4 4 4 4 4 4
9 9 9 9 9 10 9 9 9 8 8 9 8 8 8 8 8 7 8 9 9 10 11 9 9 10 11 11 10 9 9 9 9 8 8 7 7 7 7 7 7 7 7 7 6 6 6 6 6 5 5 5 5 6 6 6 6 6 6 5 5 5 5 5 5 5 5 5 6 5 5 5 5 4 4 4 4 4 4 4 4 4 4 4 4 4
9 9 9 9 9 9 9 9 9 9 9 9 8 8 8 8 8 8 9 9 9 10 10 9 8 8 10 11 10 10 9 9 9 9 8 7 7 7 7 7 7 7 7 7 6 6 6 6 6 6 5 5 5 5 5 6 6 6 5 5 5 5 5 5 5 5 5 5 5 5 5 5 5 4 4 4 4 4 4 4 4 4 4 4 4 4
10 10 9 9 9 9 9 9 9 9 9 8 8 9 9 9 9 9 10 10 10 10 9 9 8 8 9 11 11 10 9 9 9 9 8 7 7 7 7 7 7 7 7 7 6 6 6 6 6 6 6 6 5 5 5 5 5 5 5 5 5 5 5 5 5 5 5 5 5 5 5 4 4 4 4 4 4 4 4 4 4 4 4 4 4 4
10 10 10 9 10 9 9 9 9 10 9 9 10 10 10 11 11 10 11 11 11 10 9 8 8 9 10 10 10 10 9 9 9 8 8 8 7 7 7 7 7 7 7 7 6 6 6 6 6 6 6 6 5 5 5 5 5 5 5 5 5 5 5 5 5 5 5 5 5 5 5 4 4 4 4 4 4 4 4 4 3 4 4 4 4 4
11 10 10 10 10 10 9 10 10 10 10 10 10 11 11 12 10 10 11 11 11 11 10 9 9 10 10 10 10 9 9 9 9 8 8 8 8 8 7 7 7 7 7 7 7 6 6 6 6 6 5 5 5 5 5 5 5 5 5 5 5 5 5 5 5 5 5 5 5 5 4 4 4 4 4 4 4 4 4 3 3 3 3 3 3 3
11 11 10 10 10 10 9 10 10 10 10 10 10 10 11 11 10 10 11 11 11 11 10 9 10 11 10 10 10 9 9 9 9 9 9 8 8 8 8 7 7 7 7 7 7 6 6 6 6 5 5 5 5 5 5 5 5 5 5 5 5 5 5 5 5 5 5 5 5 5 4 4 4 4 4 4 4 4 3 3 3 3 3 3 3 3
12 11 10 10 10 10 9 10 10 10 10 10 10 10 11 11 10 10 10 10 11 11 11 10 10 10 9 9 10 9 9 9 9 9 9 8 8 8 8 7 7 7 7 7 7 6 6 6 6 5 5 5 5 5 5 5 5 5 5 5 5 5 5 4 5 5 5 5 5 5 4 4 4 4 4 4 4 3 3 3 3 3 3 3 3 3
11 11 10 10 10 10 10 10 10 10 10 10 11 11 10 10 10 10 10 10 10 10 11 11 11 10 10 10 10 9 9 9 9 8 8 8 8 8 8 7 7 7 7 7 7 7 6 6 6 5 5 5 5 5 5 5 5 5 5 5 5 5 5 4 4 5 5 5 5 4 4 4 4 4 4 4 4 3 3 3 3 3 3 3 3 3
11 11 10 10 10 10 10 10 10 10 10 10 11 10 10 10 10 10 11 11 11 10 11 12 11 11 11 11 10 10 10 9 9 9 8 8 8 8 8 8 7 7 7 7 7 7 6 6 6 5 5 5 5 5 5 5 5 5 5 5 5 5 4 4 4 4 5 5 5 4 4 4 4 4 4 4 4 3 3 3 3 3 3 3 3 3
11 11 11 10 10 10 10 10 10 10 10 10 10 10 10 10 11 11 11 11 11 10 11 12 12 11 11 11 10 10 10 9 9 9 8 8 8 8 8 8 8 7 7 7 7 7 6 6 6 6 5 5 5 5 5 5 5 5 5 5 5 5 4 4 4 4 5 5 4 4 4 4 4 4 4 4 4 3 3 3 3 3 3 3 3 3
11 11 11 11 10 10 10 10 11 11 10 10 10 10 10 10 11 11 10 11 11 10 10 11 12 12 11 10 10 10 10 9 9 9 9 8 8 8 8 8 8 8 7 7 7 7 6 6 6 6 5 5 5 5 5 5 5 5 5 5 5 5 5 4 4 4 4 4 4 4 4 4 4 4 4 4 4 3 3 3 3 3 3 3 3 3
10 11 11 11 10 10 10 10 11 11 11 10 10 11 10 10 10 10 10 11 11 11 10 10 11 12 11 10 10 10 9 9 9 9 9 8 8 8 8 8 8 8 7 7 7 7 6 6 6 6 5 5 5 5 5 5 4 4 5 5 5 5 4 4 4 4 4 4 4 4 4 4 4 4 4 4 4 3 3 3 3 3 3 3 3 3
11 11 11 11 11 11 11 10 10 10 10 11 11 11 11 10 11 11 10 10 10 11 11 10 10 11 10 9 10 10 9 9 9 9 9 8 8 8 8 8 8 8 8 7 7 7 6 6 6 6 5 5 5 5 5 5 4 4 4 4 5 4 4 4 4 4 4 4 4 4 4 4 4 4 4 4 4 3 3 3 3 3 3 3 3 3
11 11 11 12 11 11 11 10 10 10 10 10 10 10 10 10 11 11 11 11 11 10 10 10 11 11 10 9 10 10 9 9 9 9 9 9 9 9 8 8 8 8 8 7 7 7 7 6 6 6 5 5 5 5 5 5 5 5 5 4 5 4 4 4 4 4 4 4 4 4 4 4 3 3 3 4 4 3 3 3 3 3 3 3 3 3
11 11 11 12 11 11 10 10 10 10 10 10 10 10 10 10 10 10 10 10 11 11 11 11 11 10 10 9 9 9 9 9 9 9 9 9 9 9 9 8 8 8 8 8 7 7 7 6 6 6 5 5 5 5 5 5 5 5 5 5 5 5 4 4 4 4 4 4 4 4 4 4 3 3 3 3 4 3 3 3 3 3 3 3 3 3
11 11 11 12 12 11 11 11 10 10 10 10 10 10 10 10 10 10 10 10 10 11 11 11 11 11 10 10 10 10 9 9 9 9 9 9 9 9 9 9 8 8 8 8 7 7 7 7 6 6 6 5 5 5 5 5 4 5 5 5 5 5 4 4 4 4 4 4 4 4 4 4 3 3 3 3 3 3 3 2 3 3 3 3 3 3
10 10 11 12 12 12 11 12 11 11 11 10 10 10 10 10 9 10 10 10 11 10 10 10 11 10 10 10 10 10 9 9 9 8 9 9 9 9 9 9 8 8 8 8 8 7 7 7 6 6 6 5 5 5 5 4 4 5 5 5 5 5 4 4 4 4 4 4 4 4 4 3 3 3 3 3 3 3 3 2 2 3 3 3 3 3
10 10 10 11 12 12 12 12 11 11 11 11 10 10 10 9 9 9 10 11 11 10 10 10 10 10 10 10 10 9 9 9 9 9 9 9 9 9 9 9 8 8 8 8 8 8 7 7 7 6 6 5 5 5 5 5 4 5 5 5 5 5 4 4 4 4 4 4 4 4 4 3 3 3 3 3 3 3 2 2 2 3 3 3 3 3
10 10 10 10 11 11 11 11 11 11 11 11 10 10 9 9 9 9 10 10 10 10 11 10 9 9 9 9 9 9 9 9 9 9 9 9 9 9 9 9 8 8 8 8 8 8 7 7 7 6 6 5 5 5 5 5 4 5 5 5 5 5 4 4 4 4 4 4 4 4 4 3 3 3 3 3 3 3 2 2 2 3 3 3 3 3
10 10 10 10 10 10 10 10 10 10 10 10 10 10 9 9 9 9 9 9 9 9 10 9 8 9 9 9 9 9 8 9 9 8 9 9 9 8 8 8 8 8 8 8 8 8 7 7 7 7 6 6 5 5 5 5 4 4 5 5 4 4 4 4 4 4 4 4 4 4 4 3 3 3 3 3 3 3 2 2 2 2 3 3 3 3
10 10 10 10 10 10 10 10 10 10 10 10 10 10 9 9 9 9 9 9 8 9 9 8 8 9 9 9 9 8 9 9 8 8 8 8 8 8 8 8 8 8 8 8 8 8 7 7 7 7 7 6 6 5 5 5 4 4 4 4 4 4 4 4 4 4 4 4 4 4 4 3 3 3 3 3 3 2 2 2 2 3 2 2 2 2
10 10 10 10 10 10 10 10 10 9 9 10 10 10 9 9 9 9 9 8 8 9 8 8 8 9 9 9 8 8 8 8 8 8 8 8 8 8 8 8 8 8 8 8 8 8 7 7 7 7 7 6 6 5 5 5 5 4 4 4 4 4 4 4 4 4 4 4 4 4 4 4 3 3 3 3 2 2 2 2 2 3 2 2 2 2
9 9 9 9 10 10 9 9 9 9 9 9 9 10 10 10 9 9 8 8 8 8 8 8 9 9 9 9 8 8 8 8 8 8 8 8 8 8 8 8 8 8 8 8 8 8 7 7 7 7 7 6 6 6 5 5 5 4 4 4 4 4 4 4 4 4 4 4 4 4 4 4 3 3 3 3 2 2 2 2 2 3 3 2 2 2
8 9 9 9 10 10 9 9 9 9 9 10 9 9 10 10 9 9 9 8 8 8 8 9 9 9 9 9 8 8 8 8 8 8 8 8 8 8 8 8 8 8 8 8 8 7 7 7 7 7 7 7 6 6 6 5 5 5 4 4 4 4 4 4 4 4 4 4 4 4 4 4 3 3 3 2 2 2 2 2 3 3 3 2 2 2
8 8 9 8 9 10 9 8 9 9 9 10 9 9 9 9 9 9 9 9 8 8 8 8 8 8 8 8 8 8 8 8 8 8 8 8 8 8 8 8 8 8 8 8 8 7 7 7 7 7 7 7 6 6 6 5 5 5 4 4 4 4 4 4 4 4 4 4 4 4 4 4 3 3 3 3 3 3 2 2 3 3 3 2 2 2
7 8 8 8 9 9 8 8 8 9 9 9 9 9 9 9 9 8 8 8 8 8 8 8 8 8 8 8 8 8 8 8 8 8 8 8 8 8 8 8 8 8 8 8 8 8 7 7 7 7 7 7 6 6 6 5 5 5 4 4 4 4 4 4 4 4 4 4 4 4 4 4 3 3 3 3 3 3 3 2 3 3 3 2 2 2
7 7 8 7 8 8 8 8 8 9 9 9 9 9 9 8 8 8 8 8 8 8 8 8 8 8 8 8 8 8 8 8 8 8 8 8 8 8 8 8 8 8 8 8 8 8 8 7 7 7 7 7 6 6 6 5 5 5 5 4 4 4 4 4 4 4 4 4 4 4 4 4 3 3 3 3 3 3 3 3 3 3 3 2 2 2
7 7 7 7 8 8 8 9 9 9 9 8 8 8 8 8 8 8 8 8 7 8 8 8 8 8 8 7 7 7 8 7 7 7 7 8 7 7 7 7 7 8 8 8 8 8 8 7 7 7 7 6 6 6 6 6 5 5 5 4 4 4 4 4 4 4 4 4 4 4 4 4 3 3 3 3 3 3 3 3 3 3 3 2 2 2
7 7 7 7 7 7 8 9 9 9 9 9 8 8 8 8 8 8 8 8 7 8 8 7 8 8 7 7 7 7 7 7 7 7 7 7 7 7 7 7 7 7 7 7 8 8 7 7 7 7 6 6 6 6 6 6 5 5 5 4 4 4 4 4 4 4 4 4 4 4 4 4 3 3 3 3 3 3 3 3 3 3 2 2 2 2
7 7 6 6 7 7 7 8 8 8 8 8 8 7 7 8 8 7 8 8 7 7 8 7 7 7 7 7 7 7 7 7 7 6 7 7 7 7 7 7 7 7 7 7 7 7 7 7 7 7 6 6 6 6 6 5 5 5 5 4 4 4 4 4 4 4 4 4 4 4 4 4 3 3 3 3 3 3 3 3 3 3 2 2 2 2
7 6 6 6 7 7 7 7 8 8 8 7 7 7 7 8 7 7 8 8 7 7 7 7 7 7 7 7 7 7 7 7 7 6 7 7 7 7 7 7 7 7 7 7 7 7 7 7 7 7 6 6 6 6 6 5 5 5 5 4 4 4 4 4 4 4 4 4 4 4 4 4 3 3 3 3 3 3 3 3 3 2 2 2 2 2
6 6 6 6 7 7 7 7 8 8 7 7 7 7 7 7 7 7 8 8 7 7 7 7 7 7 7 7 7 7 7 7 7 7 7 6 6 6 6 6 6 6 6 7 7 6 7 7 7 7 7 6 6 6 5 5 5 5 5 4 4 4 4 4 4 4 4 4 4 4 4 4 3 3 3 3 3 2 2 2 2 2 2 2 2 2
6 6 6 6 6 7 7 7 7 8 7 6 6 7 7 7 7 7 7 7 7 7 7 7 7 7 7 7 7 6 7 7 7 6 6 6 6 6 6 6 6 6 6 6 6 6 6 6 7 7 7 6 6 6 5 5 5 5 5 4 4 4 4 4 4 3 3 3 4 4 4 4 3 3 3 3 3 2 2 2 2 2 2 2 2 2
6 6 6 6 6 6 7 7 7 7 6 6 6 6 6 6 6 6 7 7 7 7 7 7 7 6 6 6 6 6 6 6 6 6 6 6 6 6 6 6 6 6 6 6 6 6 6 6 6 6 6 6 6 6 6 5 5 5 5 4 4 4 4 4 4 3 3 3 3 3 4 4 3 3 3 3 2 2 2 2 2 2 2 2 2 2
5 5 6 7 6 6 7 6 6 6 6 6 6 6 6 6 6 6 6 6 6 6 6 6 6 6 6 6 6 6 6 6 6 6 6 6 6 6 6 6 6 6 6 6 6 6 6 6 6 6 6 6 6 6 6 6 5 5 5 4 4 4 4 4 4 3 3 3 3 3 3 3 3 3 3 3 2 2 2 2 2 2 2 2 2 2
5 5 5 6 5 5 6 6 5 5 6 6 6 6 6 6 5 5 6 6 6 6 6 6 6 6 5 5 5 6 6 6 6 6 6 6 6 6 6 6 6 6 5 6 6 6 6 5 5 5 6 6 6 6 6 6 6 5 5 5 4 4 4 4 4 4 3 3 3 3 3 3 3 3 3 3 2 2 2 2 2 2 2 2 2 2
4 4 5 5 4 4 5 5 5 5 5 5 5 5 5 5 5 5 5 5 5 5 5 5 5 5 5 5 5 5 5 5 5 5 5 5 5 5 5 5 5 5 5 5 5 5 5 5 5 5 5 5 6 6 6 6 6 5 5 5 4 4 4 4 4 4 3 3 3 3 3 3 3 3 3 3 2 2 2 2 2 2 2 2 2 2
4 4 4 4 4 4 4 4 4 4 4 4 4 4 4 4 4 4 4 4 4 4 4 4 4 4 4 5 5 5 5 5 5 5 5 5 5 5 5 5 5 5 5 5 5 5 5 5 5 5 5 5 5 5 6 6 5 5 5 5 5 4 4 4 4 4 4 3 3 3 3 3 3 3 3 3 3 2 2 2 2 2 2 2 2 2
3 4 4 3 3 3 3 3 3 3 4 4 4 3 3 3 3 4 4 4 4 4 4 4 4 4 4 4 4 4 5 5 5 5 5 5 5 5 5 5 5 5 5 5 5 5 5 5 5 5 5 5 5 5 5 5 5 5 5 5 5 4 4 4 4 4 4 3 3 3 3 3 3 3 3 3 3 2 2 2 2 2 2 2 2 2
3 3 3 3 3 3 3 3 3 3 3 3 3 3 3 3 3 3 3 3 3 3 3 3 4 4 4 4 4 4 4 4 4 5 5 5 5 5 5 5 5 5 5 5 5 5 5 5 5 5 5 5 5 5 5 5 5 5 5 5 5 4 4 4 4 4 4 3 3 3 3 3 3 3 3 3 3 2 2 2 2 2 2 2 2 2
3 3 3 3 3 3 3 2 2 2 2 2 2 3 3 3 3 3 3 3 3 3 3 3 3 4 4 4 4 4 4 4 4 4 4 5 5 5 5 5 5 5 5 5 5 5 5 5 5 5 5 5 5 5 5 5 5 5 5 5 5 4 4 4 4 4 4 3 3 3 3 2 2 3 3 3 3 2 2 2 2 2 2 2 2 2
3 2 2 2 2 2 2 2 2 2 2 2 2 2 2 3 3 3 3 3 3 3 3 3 3 3 4 4 4 4 4 4 4 4 4 4 5 5 5 5 5 5 5 5 5 5 5 5 5 5 5 5 5 5 5 5 5 5 5 5 5 4 4 4 4 4 4 3 3 3 2 2 2 2 3 3 2 2 2 2 2 2 2 2 2 2
Height
3152 3154 3155 3155 3155 3154 3153 3153 3152 3151 3152 3152 3151 3151 3151 3151 3152 3152 3152 3151 3150 3151 3152 3152 3151 3152 3152 3151 3150 3150 3149 3149 3149 3149 3149 3149 3149 3149 3149 3149 3149 3148 3146 3145 3143 3143 3142 3141 3140 3140 3140 3139 3138 3138 3137 3136 3136 3135 3134 3133 3132 3131 3130 3130 3128 3127 3126 3124 3123 3121 3120 3118 3116 3114 3112 3109 3107 3105 3103 3101 3099 3097 3095 3093 3091 3088
3154 3156 3157 3156 3155 3154 3154 3153 3152 3152 3152 3152 3152 3152 3152 3152 3152 3153 3152 3151 3150 3151 3152 3151 3151 3152 3151 3151 3150 3149 3149 3149 3149 3148 3149 3149 3148 3148 3148 3149 3148 3148 3146 3145 3143 3143 3142 3141 3141 3140 3140 3139 3139 3138 3137 3137 3136 3135 3134 3133 3132 3131 3131 3130 3129 3127 3126 3125 3123 3122 3120 3118 3116 3114 3111 3109 3107 3105 3103 3101 3099 3097 3095 3093 3091 3089
3157 3157 3157 3156 3155 3154 3154 3153 3153 3153 3153 3153 3153 3152 3152 3153 3153 3152 3152 3152 3151 3151 3152 3151 3151 3151 3151 3151 3150 3149 3149 3149 3149 3149 3149 3149 3148 3148 3148 3148 3148 3148 3147 3145 3143 3143 3142 3141 3141 3140 3140 3139 3139 3138 3138 3137 3136 3135 3134 3133 3132 3132 3131 3130 3129 3128 3126 3125 3123 3122 3120 3118 3116 3114 3112 3110 3107 3105 3103 3101 3099 3097 3096 3094 3091 3089
3158 3159 3158 3156 3155 3155 3155 3154 3154 3154 3154 3154 3153 3152 3152 3153 3153 3152 3152 3152 3151 3151 3151 3151 3151 3151 3151 3151 3150 3149 3149 3149 3149 3149 3149 3149 3149 3148 3148 3148 3148 3147 3147 3145 3144 3143 3142 3141 3141 3140 3140 3140 3139 3138 3138 3137 3136 3135 3134 3133 3132 3132 3131 3130 3129 3128 3126 3125 3124 3122 3120 3118 3116 3114 3112 3110 3107 3105 3103 3101 3100 3098 3096 3094 3092 3089
3159 3159 3158 3157 3156 3156 3156 3155 3155 3154 3154 3154 3154 3153 3153 3153 3153 3153 3153 3152 3151 3151 3150 3150 3149 3150 3151 3151 3151 3150 3149 3149 3149 3148 3148 3148 3148 3148 3148 3147 3147 3147 3147 3146 3144 3143 3142 3141 3141 3141 3140 3140 3139 3138 3138 3137 3136 3135 3134 3133 3132 3132 3131 3130 3129 3128 3126 3125 3123 3122 3120 3118 3116 3114 3112 3109 3107 3105 3103 3102 3100 3098 3096 3094 3092 3090
3160 3160 3159 3158 3157 3157 3157 3157 3156 3155 3154 3154 3154 3153 3153 3153 3153 3153 3153 3152 3151 3151 3151 3150 3148 3148 3151 3151 3151 3151 3149 3149 3149 3148 3148 3148 3148 3148 3147 3147 3147 3147 3146 3146 3145 3143 3142 3142 3141 3141 3140 3140 3139 3138 3138 3137 3136 3135 3134 3133 3132 3132 3131 3130 3129 3127 3126 3124 3123 3121 3120 3118 3116 3114 3112 3109 3107 3106 3104 3102 3100 3098 3097 3095 3092 3090
3161 3160 3159 3159 3158 3158 3158 3158 3157 3155 3154 3154 3154 3153 3153 3153 3153 3153 3153 3152 3151 3151 3151 3150 3147 3147 3150 3151 3151 3151 3150 3150 3149 3148 3148 3148 3148 3148 3147 3147 3147 3146 3146 3145 3144 3143 3142 3142 3141 3141 3140 3140 3139 3138 3137 3137 3136 3135 3134 3133 3132 3132 3131 3130 3128 3127 3126 3124 3123 3122 3120 3118 3116 3114 3112 3110 3108 3106 3104 3103 3101 3099 3097 3095 3092 3090
3161 3160 3160 3160 3159 3159 3159 3158 3157 3155 3155 3154 3154 3153 3153 3153 3153 3153 3153 3152 3152 3151 3150 3150 3148 3146 3148 3150 3151 3150 3150 3151 3150 3149 3149 3149 3149 3148 3147 3147 3147 3146 3146 3145 3144 3143 3142 3142 3141 3141 3140 3140 3139 3138 3137 3137 3136 3135 3134 3133 3132 3131 3131 3129 3128 3127 3125 3124 3123 3122 3120 3118 3117 3115 3113 3111 3109 3107 3105 3103 3101 3099 3097 3095 3092 3090
3161 3161 3161 3160 3160 3160 3159 3158 3157 3156 3156 3156 3154 3154 3154 3154 3153 3153 3153 3153 3152 3150 3150 3151 3149 3146 3147 3149 3150 3150 3151 3151 3151 3151 3150 3150 3149 3148 3147 3147 3147 3146 3146 3145 3144 3143 3142 3142 3141 3141 3140 3139 3139 3138 3137 3136 3135 3134 3133 3132 3132 3131 3130 3129 3128 3126 3125 3124 3123 3122 3120 3118 3117 3115 3113 3111 3109 3107 3105 3103 3101 3099 3097 3095 3093 3090
3161 3161 3161 3160 3161 3161 3159 3159 3157 3157 3157 3156 3154 3154 3154 3153 3153 3153 3153 3153 3151 3150 3150 3151 3150 3147 3147 3148 3150 3150 3151 3151 3151 3151 3151 3151 3150 3149 3148 3147 3147 3146 3145 3145 3144 3143 3143 3142 3142 3141 3140 3139 3138 3137 3137 3136 3135 3134 3133 3132 3132 3131 3130 3129 3127 3126 3125 3124 3123 3122 3120 3118 3117 3115 3113 3111 3109 3107 3105 3103 3101 3099 3097 3095 3093 3091
3161 3161 3161 3160 3161 3160 3159 3159 3158 3157 3157 3156 3154 3154 3154 3154 3153 3153 3152 3152 3151 3151 3152 3152 3151 3150 3148 3148 3149 3150 3150 3151 3151 3151 3151 3150 3150 3149 3148 3147 3147 3146 3145 3145 3144 3144 3143 3142 3142 3141 3140 3139 3138 3137 3136 3135 3134 3133 3133 3132 3131 3131 3130 3128 3127 3126 3125 3124 3123 3121 3120 3118 3116 3115 3113 3110 3109 3107 3105 3103 3101 3099 3097 3095 3093 3091
3162 3161 3161 3161 3161 3160 3159 3159 3159 3158 3156 3156 3156 3156 3154 3153 3152 3151 3151 3150 3149 3150 3153 3153 3152 3151 3149 3148 3150 3150 3151 3151 3151 3151 3151 3150 3150 3149 3148 3147 3147 3146 3145 3145 3144 3144 3143 3143 3142 3141 3141 3140 3139 3137 3136 3135 3134 3133 3132 3131 3131 3130 3129 3128 3127 3126 3125 3124 3123 3121 3120 3118 3116 3114 3112 3110 3109 3107 3105 3103 3102 3100 3098 3096 3093 3091
3162 3162 3162 3161 3161 3160 3159 3160 3159 3158 3157 3156 3156 3155 3152 3150 3150 3150 3148 3149 3149 3151 3154 3153 3151 3150 3149 3150 3151 3151 3151 3151 3150 3150 3150 3150 3149 3148 3148 3148 3147 3146 3146 3145 3144 3144 3143 3143 3142 3141 3141 3140 3139 3138 3136 3135 3134 3133 3132 3131 3130 3130 3129 3128 3127 3126 3125 3124 3123 3121 3120 3118 3116 3114 3112 3110 3109 3107 3105 3104 3102 3100 3098 3096 3094 3092
3162 3163 3162 3162 3161 3160 3160 3160 3159 3159 3159 3158 3157 3155 3152 3151 3152 3152 3150 3149 3151 3152 3154 3153 3151 3149 3149 3150 3151 3151 3151 3150 3149 3149 3149 3148 3148 3148 3148 3148 3147 3146 3146 3145 3144 3144 3143 3143 3142 3141 3140 3140 3139 3138 3136 3135 3134 3132 3132 3131 3130 3129 3129 3128 3127 3126 3125 3124 3122 3121 3120 3118 3116 3114 3112 3110 3109 3107 3105 3104 3102 3100 3098 3096 3094 3092
3161 3162 3162 3162 3162 3161 3161 3161 3160 3160 3160 3159 3158 3156 3155 3154 3155 3154 3152 3151 3151 3152 3153 3153 3151 3150 3150 3152 3152 3151 3150 3149 3149 3149 3148 3148 3148 3148 3148 3147 3147 3146 3145 3145 3144 3144 3143 3143 3142 3141 3140 3140 3139 3137 3136 3135 3133 3132 3131 3131 3130 3129 3128 3128 3127 3126 3125 3124 3122 3121 3120 3118 3116 3115 3113 3111 3109 3107 3105 3104 3102 3100 3098 3096 3094 3092
3161 3161 3162 3162 3161 3161 3161 3161 3160 3160 3160 3159 3158 3157 3157 3157 3156 3155 3155 3155 3153 3152 3152 3152 3152 3151 3152 3152 3152 3152 3151 3150 3149 3149 3148 3148 3148 3148 3148 3147 3147 3146 3145 3145 3144 3144 3143 3142 3142 3141 3140 3140 3139 3137 3136 3135 3133 3132 3131 3131 3130 3129 3128 3128 3127 3126 3125 3124 3122 3121 3120 3118 3117 3115 3113 3111 3109 3107 3106 3104 3102 3100 3098 3096 3094 3092
3160 3161 3162 3161 3161 3161 3161 3161 3160 3160 3160 3159 3157 3158 3158 3158 3157 3156 3156 3155 3154 3152 3153 3153 3152 3152 3151 3152 3152 3152 3152 3151 3150 3149 3149 3148 3148 3148 3148 3147 3147 3146 3145 3145 3144 3144 3143 3142 3142 3141 3140 3140 3139 3137 3136 3135 3134 3133 3132 3131 3130 3129 3128 3128 3127 3126 3125 3124 3122 3121 3120 3118 3117 3115 3113 3111 3109 3108 3106 3104 3102 3100 3099 3097 3095 3093
3160 3161 3161 3162 3162 3161 3161 3161 3161 3160 3160 3159 3159 3159 3159 3157 3157 3156 3155 3153 3152 3152 3152 3151 3151 3152 3151 3151 3152 3152 3152 3152 3151 3150 3148 3148 3148 3148 3147 3147 3146 3146 3145 3145 3144 3144 3143 3142 3142 3141 3140 3139 3138 3138 3136 3135 3134 3133 3132 3131 3130 3129 3128 3128 3127 3126 3125 3124 3122 3121 3120 3118 3117 3115 3113 3111 3110 3108 3106 3104 3102 3101 3099 3097 3095 3093
3160 3159 3160 3161 3162 3161 3161 3161 3161 3161 3160 3160 3160 3159 3158 3157 3157 3156 3156 3155 3154 3154 3153 3150 3150 3151 3151 3152 3153 3153 3152 3152 3151 3150 3149 3148 3148 3147 3147 3147 3146 3145 3145 3144 3144 3143 3143 3142 3141 3141 3140 3139 3138 3138 3136 3135 3134 3133 3132 3131 3130 3129 3128 3128 3127 3126 3125 3124 3122 3121 3120 3118 3117 3115 3114 3112 3110 3108 3106 3105 3103 3101 3099 3097 3095 3094
3160 3159 3159 3160 3161 3161 3162 3162 3161 3161 3160 3160 3160 3159 3159 3159 3158 3157 3157 3156 3155 3155 3155 3153 3150 3150 3152 3154 3153 3153 3152 3152 3151 3151 3150 3149 3148 3147 3146 3146 3146 3145 3145 3144 3144 3143 3142 3142 3141 3140 3140 3139 3138 3138 3137 3135 3134 3133 3132 3130 3129 3129 3128 3127 3127 3126 3125 3124 3122 3121 3120 3119 3117 3116 3114 3112 3110 3108 3107 3105 3103 3101 3099 3097 3096 3094
3160 3159 3159 3160 3161 3161 3161 3161 3161 3161 3161 3160 3160 3160 3159 3159 3158 3157 3157 3157 3156 3155 3155 3155 3153 3151 3153 3155 3154 3153 3152 3151 3151 3150 3149 3149 3147 3146 3146 3145 3145 3145 3144 3144 3143 3143 3142 3141 3141 3140 3140 3139 3138 3137 3137 3135 3134 3133 3132 3130 3129 3129 3128 3127 3127 3126 3125 3124 3122 3121 3120 3119 3117 3116 3114 3112 3111 3109 3107 3105 3103 3101 3099 3097 3096 3094
3160 3160 3159 3159 3160 3160 3160 3160 3160 3160 3160 3160 3160 3160 3159 3159 3158 3156 3156 3157 3157 3156 3155 3155 3154 3152 3153 3154 3154 3153 3152 3151 3150 3149 3149 3148 3147 3146 3146 3145 3145 3144 3144 3143 3143 3142 3142 3141 3140 3140 3139 3139 3138 3137 3136 3135 3134 3133 3132 3130 3129 3128 3128 3127 3126 3126 3125 3123 3122 3121 3120 3119 3117 3116 3114 3113 3111 3109 3107 3105 3103 3101 3100 3098 3096 3094
3159 3159 3159 3158 3158 3159 3159 3159 3159 3159 3159 3159 3159 3159 3159 3158 3158 3157 3156 3156 3156 3155 3155 3155 3154 3153 3153 3154 3153 3152 3151 3150 3150 3149 3148 3147 3146 3145 3145 3144 3144 3144 3143 3143 3142 3141 3141 3140 3140 3139 3139 3138 3137 3137 3136 3135 3134 3133 3132 3130 3129 3128 3127 3127 3126 3125 3124 3123 3122 3121 3120 3119 3118 3116 3115 3113 3111 3109 3107 3105 3104 3102 3100 3098 3096 3094
3158 3158 3158 3157 3158 3158 3158 3158 3158 3158 3158 3159 3159 3159 3159 3158 3158 3157 3157 3156 3155 3154 3154 3153 3153 3154 3154 3153 3153 3152 3151 3150 3149 3149 3148 3147 3146 3145 3144 3144 3143 3143 3143 3142 3141 3141 3140 3140 3139 3139 3138 3138 3137 3136 3136 3135 3134 3133 3132 3130 3129 3128 3127 3126 3126 3125 3124 3123 3122 3121 3120 3119 3118 3116 3115 3113 3111 3109 3107 3106 3104 3102 3100 3098 3096 3095
3157 3158 3157 3156 3156 3157 3157 3157 3157 3157 3158 3158 3158 3158 3158 3158 3158 3157 3156 3156 3154 3153 3154 3153 3152 3153 3153 3153 3153 3152 3151 3150 3149 3148 3147 3146 3145 3145 3144 3143 3143 3142 3142 3142 3141 3140 3140 3139 3139 3138 3138 3137 3137 3136 3135 3134 3133 3132 3131 3130 3129 3128 3127 3126 3125 3125 3124 3123 3122 3122 3120 3119 3118 3116 3115 3113 3111 3109 3108 3106 3104 3103 3101 3099 3097 3095
3156 3157 3157 3155 3153 3153 3154 3153 3154 3156 3157 3157 3157 3157 3157 3157 3157 3156 3156 3155 3153 3154 3154 3153 3151 3152 3153 3152 3152 3151 3151 3150 3148 3147 3146 3146 3145 3144 3143 3143 3142 3142 3141 3141 3140 3140 3139 3139 3138 3138 3137 3137 3136 3135 3134 3133 3133 3132 3131 3130 3129 3128 3126 3126 3125 3125 3124 3123 3122 3122 3120 3119 3118 3116 3115 3113 3112 3110 3108 3106 3105 3103 3101 3100 3098 3096
3155 3155 3156 3155 3153 3152 3152 3152 3154 3156 3156 3156 3156 3156 3156 3156 3156 3156 3156 3154 3154 3154 3153 3152 3151 3152 3151 3151 3151 3150 3149 3148 3147 3146 3146 3145 3144 3143 3143 3142 3142 3141 3141 3140 3140 3139 3138 3138 3137 3137 3137 3136 3135 3135 3134 3133 3132 3131 3131 3130 3129 3127 3126 3126 3125 3124 3124 3123 3122 3121 3120 3119 3118 3116 3115 3113 3112 3110 3108 3107 3105 3104 3102 3100 3098 3097
3154 3154 3154 3155 3154 3153 3153 3154 3154 3155 3155 3156 3156 3156 3156 3155 3155 3156 3155 3154 3154 3154 3151 3150 3151 3151 3150 3150 3150 3149 3148 3147 3146 3145 3145 3144 3144 3143 3142 3142 3142 3141 3141 3140 3139 3138 3138 3137 3137 3136 3136 3135 3134 3134 3133 3132 3132 3131 3130 3130 3129 3127 3126 3125 3125 3124 3123 3123 3122 3121 3120 3119 3118 3116 3115 3114 3112 3110 3108 3107 3106 3104 3103 3101 3099 3097
3153 3153 3153 3153 3153 3153 3153 3154 3154 3154 3155 3155 3155 3155 3155 3154 3154 3154 3154 3154 3154 3153 3151 3151 3150 3150 3149 3149 3148 3147 3146 3146 3145 3145 3144 3144 3143 3143 3142 3142 3141 3141 3140 3139 3139 3138 3137 3136 3136 3135 3135 3134 3134 3133 3133 3132 3131 3130 3130 3129 3128 3127 3126 3125 3124 3124 3123 3122 3122 3121 3120 3119 3118 3116 3115 3114 3112 3110 3109 3107 3106 3105 3103 3102 3100 3098
3152 3152 3151 3152 3152 3152 3152 3152 3153 3154 3154 3154 3154 3154 3154 3154 3153 3153 3153 3152 3152 3152 3151 3151 3149 3148 3148 3148 3147 3146 3145 3144 3144 3144 3143 3143 3142 3142 3142 3141 3141 3140 3140 3139 3138 3137 3136 3135 3135 3134 3134 3133 3133 3132 3132 3131 3131 3130 3129 3129 3128 3127 3126 3125 3124 3123 3123 3122 3122 3121 3120 3119 3118 3117 3115 3114 3112 3110 3109 3108 3107 3105 3104 3102 3101 3099
3151 3150 3150 3151 3151 3151 3151 3151 3152 3152 3153 3153 3153 3153 3153 3152 3152 3152 3151 3150 3150 3150 3150 3150 3148 3147 3147 3146 3145 3144 3144 3144 3143 3143 3142 3142 3142 3142 3141 3141 3140 3140 3139 3138 3137 3136 3135 3134 3134 3133 3133 3132 3132 3131 3131 3131 3130 3129 3129 3128 3128 3127 3126 3125 3124 3123 3123 3122 3121 3121 3120 3119 3118 3117 3115 3114 3112 3110 3109 3108 3107 3106 3105 3103 3102 3100
3149 3149 3149 3150 3150 3150 3150 3150 3150 3151 3151 3151 3151 3151 3151 3151 3151 3150 3149 3149 3149 3149 3149 3148 3147 3146 3146 3145 3144 3144 3143 3143 3142 3142 3142 3141 3141 3141 3141 3140 3139 3139 3138 3137 3136 3135 3134 3133 3133 3132 3132 3131 3131 3130 3130 3130 3129 3129 3128 3128 3127 3126 3126 3125 3124 3123 3122 3122 3121 3121 3120 3119 3118 3117 3116 3114 3112 3111 3110 3109 3108 3107 3105 3104 3103 3101
3148 3148 3149 3149 3149 3148 3148 3149 3150 3150 3149 3148 3147 3148 3149 3149 3149 3149 3148 3148 3147 3148 3148 3147 3146 3145 3145 3144 3143 3143 3142 3142 3141 3141 3141 3140 3140 3140 3140 3139 3138 3137 3136 3135 3135 3134 3133 3132 3132 3131 3131 3130 3130 3129 3129 3129 3128 3128 3127 3127 3126 3126 3125 3124 3124 3123 3122 3121 3121 3120 3120 3119 3118 3117 3116 3114 3113 3111 3110 3109 3108 3107 3106 3105 3103 3102
3145 3147 3147 3148 3148 3147 3147 3148 3148 3148 3146 3144 3144 3145 3146 3147 3147 3147 3147 3147 3146 3146 3146 3145 3145 3144 3144 3143 3143 3142 3141 3141 3141 3140 3140 3140 3139 3139 3139 3138 3137 3136 3135 3134 3133 3133 3132 3131 3131 3130 3130 3129 3129 3128 3128 3127 3127 3127 3126 3126 3126 3125 3125 3124 3123 3122 3122 3121 3120 3120 3119 3119 3118 3117 3116 3114 3113 3112 3111 3110 3109 3108 3107 3105 3104 3102
3143 3145 3145 3146 3146 3146 3146 3147 3147 3144 3142 3142 3142 3143 3144 3144 3144 3145 3145 3145 3144 3144 3144 3144 3143 3143 3143 3142 3142 3141 3141 3140 3140 3139 3139 3139 3138 3138 3138 3137 3136 3135 3134 3133 3132 3132 3131 3130 3130 3129 3129 3128 3128 3127 3127 3126 3126 3126 3126 3125 3125 3125 3124 3124 3123 3122 3121 3120 3120 3119 3119 3118 3117 3116 3116 3114 3113 3112 3111 3111 3110 3108 3107 3106 3105 3103
3142 3143 3143 3143 3144 3144 3144 3145 3143 3141 3140 3140 3141 3141 3142 3142 3142 3142 3142 3141 3141 3141 3141 3142 3142 3142 3142 3141 3141 3140 3140 3139 3139 3138 3138 3138 3138 3137 3137 3136 3135 3134 3134 3133 3132 3131 3130 3130 3129 3129 3128 3127 3127 3126 3126 3125 3125 3125 3124 3124 3124 3124 3123 3123 3122 3121 3120 3120 3119 3119 3119 3118 3117 3116 3116 3114 3113 3112 3112 3111 3110 3109 3107 3106 3105 3103
3140 3141 3142 3141 3141 3142 3142 3141 3140 3139 3138 3139 3139 3139 3139 3140 3140 3140 3140 3139 3138 3139 3140 3140 3140 3140 3140 3140 3140 3140 3139 3138 3138 3138 3137 3137 3137 3136 3136 3135 3134 3134 3133 3132 3131 3130 3129 3129 3128 3128 3127 3127 3126 3126 3125 3124 3124 3123 3123 3123 3123 3122 3122 3122 3122 3121 3120 3119 3119 3118 3118 3118 3117 3116 3115 3115 3113 3113 3112 3111 3110 3109 3108 3107 3105 3103
3138 3139 3140 3140 3139 3139 3139 3138 3137 3137 3136 3136 3136 3136 3137 3138 3138 3138 3138 3137 3136 3137 3138 3138 3138 3138 3138 3139 3139 3139 3138 3138 3138 3137 3136 3136 3136 3135 3135 3134 3134 3133 3132 3132 3131 3129 3128 3128 3127 3127 3126 3126 3125 3125 3124 3123 3123 3123 3122 3122 3122 3121 3121 3121 3121 3120 3119 3118 3118 3118 3117 3117 3116 3116 3115 3114 3113 3113 3112 3111 3110 3109 3108 3107 3105 3104
3136 3136 3137 3138 3137 3137 3137 3136 3135 3134 3134 3134 3134 3134 3135 3136 3136 3136 3136 3134 3134 3135 3136 3136 3136 3137 3137 3137 3137 3137 3138 3138 3137 3135 3135 3135 3134 3134 3133 3133 3133 3132 3131 3131 3130 3129 3128 3127 3126 3126 3125 3125 3124 3123 3123 3122 3122 3121 3121 3121 3120 3120 3120 3120 3119 3118 3118 3117 3117 3117 3117 3116 3116 3115 3115 3114 3113 3113 3112 3111 3110 3109 3108 3107 3106 3104
3134 3134 3135 3135 3135 3135 3135 3134 3133 3132 3132 3131 3132 3132 3133 3134 3135 3135 3134 3131 3131 3133 3134 3134 3134 3135 3135 3136 3135 3135 3136 3136 3134 3134 3134 3134 3133 3132 3132 3132 3131 3131 3130 3130 3129 3128 3128 3126 3125 3125 3124 3123 3123 3122 3121 3121 3120 3120 3120 3119 3119 3119 3118 3118 3118 3117 3117 3117 3116 3116 3116 3115 3115 3115 3114 3114 3113 3112 3112 3111 3110 3109 3108 3107 3106 3105
3132 3132 3132 3132 3132 3132 3132 3131 3130 3130 3129 3128 3130 3131 3132 3133 3133 3133 3131 3129 3130 3131 3131 3132 3132 3133 3133 3134 3134 3134 3134 3133 3133 3132 3132 3132 3131 3131 3131 3130 3130 3130 3129 3129 3128 3127 3127 3126 3125 3124 3123 3122 3121 3120 3120 3119 3119 3118 3118 3118 3117 3117 3117 3116 3116 3116 3116 3115 3115 3114 3114 3114 3114 3114 3114 3113 3113 3112 3111 3111 3110 3109 3108 3107 3106 3105
3130 3130 3129 3129 3130 3130 3129 3129 3129 3127 3125 3125 3127 3129 3130 3131 3131 3129 3128 3128 3128 3129 3129 3130 3130 3131 3131 3132 3132 3132 3132 3131 3131 3131 3131 3130 3130 3130 3129 3129 3129 3128 3127 3127 3126 3126 3125 3125 3124 3123 3122 3121 3120 3119 3118 3118 3117 3117 3116 3115 3115 3115 3115 3115 3115 3115 3114 3114 3114 3113 3113 3113 3113 3113 3113 3112 3112 3111 3111 3110 3109 3108 3108 3107 3106 3105
3127 3127 3127 3126 3127 3127 3127 3127 3127 3124 3122 3123 3125 3126 3127 3127 3127 3126 3126 3127 3127 3127 3127 3127 3128 3128 3129 3129 3129 3129 3129 3129 3129 3129 3129 3128 3128 3128 3128 3127 3127 3126 3126 3125 3125 3124 3124 3123 3122 3122 3121 3120 3118 3117 3117 3116 3115 3115 3114 3113 3113 3113 3113 3113 3113 3113 3113 3113 3112 3112 3111 3111 3111 3112 3112 3111 3111 3111 3110 3110 3109 3108 3107 3106 3106 3105
3124 3125 3125 3124 3124 3125 3124 3124 3123 3122 3121 3122 3123 3123 3123 3123 3123 3124 3124 3124 3125 3125 3125 3125 3125 3126 3126 3126 3127 3127 3127 3127 3127 3127 3126 3126 3126 3126 3126 3125 3125 3125 3124 3124 3123 3122 3122 3121 3121 3120 3119 3118 3117 3116 3115 3114 3113 3113 3113 3112 3111 3111 3110 3111 3111 3111 3111 3111 3111 3110 3110 3109 3110 3110 3110 3110 3110 3110 3109 3109 3108 3107 3107 3106 3105 3104
3121 3121 3122 3122 3122 3122 3121 3120 3120 3120 3120 3120 3120 3120 3120 3121 3121 3122 3122 3122 3123 3123 3123 3123 3123 3123 3124 3124 3124 3125 3124 3124 3124 3124 3124 3124 3124 3123 3123 3123 3122 3122 3122 3122 3121 3121 3120 3119 3118 3118 3117 3116 3116 3115 3113 3112 3111 3111 3110 3110 3109 3108 3108 3109 3109 3109 3109 3109 3109 3108 3108 3108 3108 3108 3109 3109 3109 3108 3108 3108 3107 3107 3106 3105 3104 3104
3118 3119 3120 3120 3120 3119 3119 3119 3118 3119 3119 3119 3118 3118 3119 3119 3119 3120 3120 3120 3120 3121 3121 3121 3121 3121 3122 3122 3122 3122 3122 3122 3122 3122 3121 3121 3121 3120 3120 3120 3120 3120 3119 3119 3119 3119 3118 3117 3116 3116 3115 3114 3113 3112 3111 3111 3110 3109 3108 3108 3107 3106 3106 3106 3106 3107 3107 3107 3107 3106 3106 3106 3106 3106 3107 3107 3107 3107 3107 3107 3106 3106 3105 3104 3104 3103
3115 3116 3118 3118 3118 3118 3117 3117 3117 3117 3117 3117 3117 3117 3117 3117 3117 3118 3118 3118 3118 3119 3119 3119 3119 3119 3119 3119 3119 3119 3119 3119 3119 3119 3118 3118 3118 3117 3117 3117 3117 3117 3117 3116 3116 3116 3116 3115 3114 3113 3112 3112 3111 3110 3109 3108 3108 3107 3106 3105 3105 3104 3103 3103 3104 3104 3104 3104 3104 3104 3104 3104 3103 3104 3105 3105 3106 3105 3105 3105 3105 3104 3104 3103 3103 3102
3113 3114 3115 3116 3116 3116 3116 3115 3115 3115 3115 3115 3115 3115 3115 3115 3116 3116 3116 3116 3116 3116 3116 3116 3117 3117 3116 3116 3116 3116 3116 3116 3116 3116 3115 3115 3114 3114 3114 3114 3114 3113 3113 3113 3113 3113 3113 3112 3112 3111 3110 3109 3108 3108 3107 3106 3105 3105 3104 3103 3102 3102 3101 3101 3101 3102 3101 3102 3102 3102 3102 3101 3101 3101 3102 3103 3103 3103 3103 3103 3103 3103 3102 3102 3101 3101
3111 3113 3113 3113 3114 3114 3114 3113 3113 3113 3113 3113 3113 3113 3113 3113 3114 3114 3114 3114 3114 3114 3114 3114 3114 3113 3113 3113 3113 3113 3113 3112 3112 3112 3112 3111 3110 3110 3110 3110 3110 3110 3109 3109 3109 3109 3109 3109 3108 3108 3107 3106 3106 3105 3104 3104 3103 3102 3101 3101 3100 3099 3099 3099 3099 3099 3099 3099 3099 3100 3099 3099 3099 3099 3100 3101 3101 3101 3101 3102 3102 3101 3101 3101 3100 3100
3110 3111 3111 3111 3112 3112 3112 3112 3111 3112 3112 3111 3110 3110 3110 3111 3111 3111 3112 3111 3111 3111 3110 3110 3110 3110 3110 3110 3109 3109 3109 3108 3107 3107 3107 3107 3106 3106 3105 3105 3105 3105 3105 3104 3104 3104 3104 3104 3104 3103 3103 3102 3102 3102 3102 3101 3100 3099 3098 3098 3097 3096 3096 3096 3096 3096 3096 3096 3097 3097 3097 3097 3096 3096 3097 3098 3099 3099 3099 3099 3099 3100 3100 3099 3099 3098
3107 3108 3108 3109 3109 3109 3109 3108 3108 3109 3110 3109 3107 3107 3108 3108 3108 3109 3109 3108 3108 3107 3107 3107 3107 3106 3106 3105 3105 3104 3104 3103 3103 3102 3102 3102 3102 3101 3101 3100 3100 3100 3100 3099 3098 3098 3098 3098 3098 3098 3098 3098 3098 3098 3098 3097 3096 3096 3095 3095 3094 3093 3093 3093 3093 3093 3094 3094 3094 3094 3094 3094 3094 3094 3094 3095 3096 3096 3097 3097 3097 3098 3098 3098 3097 3097
Wind_Speed
11 8 8 8 8 8 7 9 11 10 8 7 7 7 7 8 8 7 4 4 5 3 1 2 1 0 1 3 4 4 3 3 3 2 1 0 1 2 2 3 4 5 6 6 6 4 3 4 4 5 5 6 6 5 5 5 6 6 7 8 8 9 10 11 12 13 15 16 17 18 20 22 22 23 24 24 22 22 22 22 22 22 22 21 22 24
12 8 9 9 8 8 7 8 10 9 7 5 6 6 6 7 7 6 4 4 5 4 2 2 2 1 1 3 4 4 4 3 3 3 3 2 2 2 3 3 4 5 7 7 6 4 3 3 4 5 5 5 5 5 5 5 6 6 7 8 9 10 11 12 13 13 14 16 17 18 20 22 22 23 24 23 22 21 22 22 22 22 21 20 21 23
11 10 10 10 10 10 9 8 8 6 4 3 4 4 6 6 5 5 5 4 5 3 1 3 3 1 1 2 3 3 3 4 4 4 4 4 3 3 3 4 5 6 8 7 5 3 3 4 4 4 4 4 5 5 5 5 5 6 7 8 9 10 11 11 12 13 14 15 16 18 20 21 22 23 23 22 21 21 22 22 21 21 20 20 21 23
10 10 10 11 12 11 9 9 7 4 4 4 3 4 6 5 3 4 5 4 7 6 2 1 1 2 2 2 1 1 2 3 4 4 5 5 4 4 5 5 5 6 7 7 4 3 3 4 4 4 4 4 4 4 4 5 5 6 6 7 8 9 10 11 12 13 13 14 16 18 20 21 22 23 23 22 21 22 22 21 21 21 20 19 20 22
9 9 9 10 11 9 6 7 5 2 5 6 4 5 4 4 3 4 4 4 6 7 5 2 1 5 4 1 1 2 2 1 3 4 4 5 5 6 6 6 6 6 7 5 2 3 4 4 5 4 4 3 3 4 4 5 5 5 6 7 8 9 10 11 12 13 13 15 17 19 20 21 22 23 23 22 22 21 21 20 20 20 19 19 19 21
7 7 8 9 9 7 4 6 6 4 5 7 6 5 3 2 2 3 3 1 1 4 6 4 1 7 6 3 4 1 2 2 2 2 3 4 5 6 6 6 6 6 5 3 1 3 4 5 5 4 4 3 3 4 4 5 5 6 7 8 9 10 11 11 12 13 14 16 18 19 20 21 22 23 23 22 21 21 20 20 20 20 19 18 18 20
6 6 7 7 6 5 3 6 7 6 5 6 6 6 5 2 1 2 2 2 3 5 6 5 3 5 8 6 4 3 2 1 3 5 3 2 4 5 5 5 5 3 2 2 1 3 5 5 5 4 4 3 3 4 4 5 5 6 7 8 9 10 11 11 12 13 14 16 17 18 20 21 21 22 22 21 20 20 19 19 19 19 19 18 18 20
5 5 6 6 5 5 5 7 8 8 7 7 6 5 6 3 2 2 1 3 4 3 5 6 4 3 9 7 3 3 2 1 1 3 3 2 2 4 5 4 3 2 1 1 2 4 5 4 4 4 4 4 4 4 5 5 5 6 7 8 9 10 10 11 12 13 14 15 16 17 19 20 21 21 21 20 19 19 19 19 19 19 19 18 17 19
4 3 4 4 4 6 7 7 9 9 7 6 5 5 6 4 3 3 2 4 3 1 6 8 4 2 7 6 3 3 2 1 1 1 1 1 2 5 6 4 4 3 2 3 4 5 5 5 5 5 5 5 5 5 5 5 5 6 6 7 8 9 10 10 11 12 14 15 16 17 18 20 20 20 20 19 19 19 19 19 19 19 19 18 17 18
4 3 3 4 4 6 7 8 10 9 6 7 8 8 7 5 5 4 2 3 2 4 8 8 7 5 6 6 4 4 4 3 3 1 1 1 2 3 6 5 5 4 4 5 5 5 6 6 7 7 6 6 6 5 5 5 5 5 6 7 8 8 9 10 11 12 13 14 15 17 18 19 20 20 20 19 19 19 19 19 19 19 19 18 17 17
5 5 5 5 4 5 7 10 11 10 10 10 9 6 5 3 3 3 2 2 2 6 9 7 8 6 5 7 6 5 4 3 3 2 0 1 2 2 6 8 5 3 4 5 5 5 6 7 7 7 7 7 7 7 6 5 5 5 6 6 7 8 9 9 11 12 13 14 15 16 18 19 20 20 20 19 19 19 19 19 19 19 18 18 17 17
4 6 5 5 6 6 7 9 11 13 13 11 5 2 2 2 3 3 3 1 2 8 7 5 5 3 4 10 9 6 4 2 1 1 0 1 3 3 6 8 6 3 3 3 4 4 5 6 6 6 7 7 8 8 8 7 5 5 5 6 7 7 8 9 10 11 12 14 14 16 17 19 20 20 20 19 18 19 19 19 19 18 18 18 17 16
4 3 3 5 6 7 5 3 8 13 11 8 5 5 4 2 3 3 4 5 6 8 7 4 3 2 6 11 11 7 4 2 2 2 3 4 4 4 4 7 7 4 2 3 3 4 4 4 4 5 6 7 8 9 10 9 7 5 5 6 6 7 8 9 10 11 12 13 14 15 17 18 19 20 20 19 18 18 19 19 19 18 17 17 17 16
6 4 3 4 5 6 5 2 5 9 8 8 8 8 8 6 5 5 5 6 7 8 8 4 2 3 8 11 11 9 5 2 1 2 4 5 5 3 3 5 8 6 3 3 4 4 4 4 4 5 6 7 8 9 10 10 8 6 6 7 7 7 7 8 9 10 12 13 13 14 16 17 19 19 19 18 18 18 19 19 19 18 17 17 17 17
4 4 3 2 1 4 5 4 6 5 5 10 8 6 9 8 6 6 5 5 5 7 8 6 3 6 10 10 10 9 7 4 2 1 1 2 2 2 3 5 7 8 6 4 4 4 4 5 5 5 6 6 7 9 10 10 10 8 6 7 7 7 7 8 9 10 11 12 13 14 16 17 18 19 18 18 17 18 19 19 19 18 18 17 17 17
1 4 3 3 2 1 2 4 6 4 3 7 7 5 8 9 6 5 6 7 4 4 6 6 6 7 9 10 10 9 9 7 4 2 3 2 1 1 2 4 6 7 8 7 5 5 5 5 5 5 6 6 7 8 10 11 11 10 8 7 7 7 7 8 9 10 11 12 12 13 15 17 18 18 18 17 17 17 18 19 19 18 18 17 17 17
1 3 3 2 1 1 1 3 5 4 3 5 6 6 7 8 5 3 3 3 1 2 4 5 7 7 6 9 12 9 9 9 6 3 2 1 1 1 3 4 5 6 8 8 6 5 4 5 5 6 6 6 6 8 10 11 12 11 9 8 7 7 7 8 9 9 11 11 11 13 15 16 17 18 18 17 17 17 18 19 19 18 18 17 17 17
3 2 4 3 2 3 2 3 4 4 4 5 6 6 4 5 6 4 3 2 1 4 5 5 8 10 8 10 12 11 10 9 7 5 3 1 1 2 2 4 5 6 7 6 6 5 4 5 6 6 6 6 6 8 10 11 12 13 11 9 8 7 7 8 9 9 10 11 11 12 14 16 17 17 17 17 16 16 17 18 18 18 18 17 17 17
5 3 4 4 5 4 2 2 2 3 3 3 4 6 5 4 5 6 5 4 4 4 5 6 7 10 13 13 12 13 11 8 6 6 4 2 2 4 4 4 5 7 7 6 5 5 5 4 5 6 7 7 7 7 9 11 12 13 13 11 9 8 7 8 8 9 10 10 11 12 14 15 16 17 17 16 16 16 17 17 18 18 17 17 17 17
6 4 2 4 6 4 2 1 2 2 2 2 2 4 6 5 6 7 5 4 6 4 4 7 6 8 13 14 13 13 11 8 6 4 4 3 2 3 4 4 6 7 7 7 6 5 5 5 5 6 7 8 7 7 8 10 12 13 13 12 10 8 7 8 9 9 9 10 10 12 13 15 16 17 16 16 16 16 16 17 17 17 17 17 17 17
6 6 2 2 5 4 2 3 2 0 1 2 2 2 4 4 5 4 3 5 7 4 4 6 5 6 11 12 12 13 11 8 6 4 3 2 3 2 3 4 5 6 7 7 7 6 7 6 6 7 7 8 8 7 8 10 11 12 12 12 10 8 7 8 8 9 9 10 10 11 13 14 15 16 16 16 15 15 16 16 17 17 17 17 17 17
7 6 4 2 4 4 3 4 4 3 3 2 2 3 3 3 5 4 2 4 6 5 6 6 5 5 9 11 12 13 12 9 6 5 4 2 3 3 3 3 3 5 6 7 8 7 7 7 7 7 8 9 9 8 8 9 11 13 13 12 10 8 7 7 8 9 9 10 10 11 12 13 15 16 15 15 15 15 16 16 16 17 16 16 17 17
7 6 6 4 3 4 6 7 6 5 5 3 2 2 3 3 5 5 5 6 6 5 4 4 4 4 7 10 13 13 13 10 8 7 6 5 6 4 4 3 3 3 4 6 7 7 8 8 8 7 7 9 9 9 9 9 11 13 14 13 11 8 7 7 8 8 9 9 9 10 12 13 14 15 15 15 15 15 15 15 16 16 16 16 16 17
8 7 7 5 3 4 7 8 7 6 5 4 3 2 2 2 3 5 6 7 7 5 5 6 4 4 6 10 12 12 13 12 10 8 7 8 8 6 4 3 2 2 3 4 6 7 8 8 8 7 7 8 9 9 9 9 10 13 14 14 12 9 8 8 8 8 9 9 9 10 11 12 13 14 14 14 15 15 14 15 15 15 16 16 16 16
8 7 7 7 4 4 5 6 6 6 5 4 3 4 4 2 3 5 4 5 6 4 6 8 6 5 8 10 10 10 11 11 10 9 8 9 10 8 6 5 3 1 2 3 5 7 8 8 8 8 7 8 9 9 9 9 9 12 13 14 13 10 9 8 8 8 8 8 9 9 10 12 12 14 14 14 14 14 14 14 14 15 15 16 16 16
8 8 8 8 6 5 4 3 2 3 4 5 5 6 5 2 2 5 6 6 6 4 7 10 9 9 11 10 9 10 10 10 9 9 9 9 10 11 7 4 3 1 2 4 6 7 8 8 8 8 8 8 9 9 9 8 9 11 13 14 13 12 10 9 9 8 8 8 8 9 10 11 12 13 14 14 14 14 14 14 14 14 15 15 16 16
10 10 11 11 9 8 6 5 5 4 4 4 5 6 5 4 4 5 7 8 8 8 10 9 10 13 13 11 10 10 10 10 9 8 8 8 10 11 7 3 3 3 5 6 8 9 9 8 8 8 9 9 9 9 10 8 8 10 12 13 14 13 10 9 9 8 8 8 8 8 9 10 11 13 13 13 14 13 13 13 13 13 14 15 16 17
11 10 12 13 11 10 9 8 8 6 5 5 4 5 6 7 6 5 7 9 9 10 10 8 11 14 13 11 10 10 10 10 9 8 7 8 9 8 5 3 3 4 6 7 9 11 11 10 9 8 8 10 11 10 10 9 8 9 11 12 13 13 11 9 8 8 8 8 8 8 9 9 11 12 13 13 13 13 12 12 12 13 14 15 16 17
11 10 11 12 12 13 12 11 9 7 6 6 5 5 7 8 8 7 8 9 9 11 11 11 13 13 11 10 9 10 11 10 8 7 5 6 6 5 4 3 4 6 8 9 10 11 12 11 10 9 9 11 11 11 11 9 8 8 9 11 12 13 11 10 8 8 8 8 8 8 8 9 10 12 12 13 13 12 11 11 12 13 14 15 17 18
12 11 11 11 11 12 12 11 10 8 8 8 8 8 8 8 9 9 10 10 10 11 10 10 12 12 9 8 8 9 11 9 7 5 4 4 4 3 4 5 5 7 9 10 11 12 13 12 12 11 11 11 11 11 11 10 8 8 9 9 11 12 11 10 9 8 7 7 7 7 8 9 10 11 12 12 12 11 10 11 11 12 14 16 17 19
11 10 11 10 10 10 12 12 11 11 10 9 10 10 10 10 11 12 12 11 9 8 8 9 11 9 6 6 8 9 8 6 5 3 2 3 3 4 5 6 7 8 9 10 11 12 13 13 13 12 12 11 11 11 11 10 8 9 9 8 9 11 11 10 9 8 7 7 7 7 8 8 9 11 11 11 11 10 9 10 10 12 14 16 18 19
10 10 10 10 11 11 11 10 10 10 11 12 13 13 13 13 12 11 9 7 6 6 7 8 9 6 5 6 6 5 5 5 4 4 3 3 4 5 6 8 9 10 10 10 11 12 13 13 13 13 12 12 12 12 11 10 9 10 10 9 8 9 10 10 10 9 8 7 7 7 8 8 9 10 11 11 9 9 8 9 10 12 14 16 18 19
10 10 10 10 11 12 11 10 10 9 10 12 14 13 12 12 11 9 8 7 6 7 6 7 7 6 6 4 2 3 5 5 4 4 4 5 6 7 8 10 10 11 10 10 10 11 12 13 13 13 12 12 12 12 11 10 10 11 11 10 9 9 10 10 10 9 8 7 7 7 7 7 8 9 10 10 8 7 7 8 9 12 14 15 17 18
12 10 8 9 11 11 8 9 11 11 10 11 11 11 11 10 8 8 9 9 8 8 7 7 7 5 5 3 2 4 5 4 4 5 5 6 6 7 9 10 10 11 10 10 9 10 11 11 12 13 13 12 11 11 10 9 9 10 10 10 10 9 9 9 10 9 8 7 7 7 7 7 7 8 9 8 6 6 6 7 9 11 13 14 15 17
11 10 9 9 11 11 8 8 10 10 11 12 12 12 12 9 9 11 12 12 12 11 9 7 6 5 4 4 4 4 4 4 5 5 5 5 7 8 9 9 10 11 11 10 9 9 9 10 11 12 13 13 12 12 11 9 9 9 9 10 11 10 9 9 10 10 9 8 7 7 7 6 6 7 8 6 5 5 6 6 8 10 12 13 14 16
12 10 10 9 11 11 10 11 10 8 9 10 10 12 12 11 11 12 10 11 12 13 11 8 7 6 5 5 5 5 5 5 5 4 4 5 6 7 8 9 11 11 11 11 11 10 8 8 9 10 12 13 13 13 13 11 10 9 9 10 11 11 10 10 10 10 10 9 8 7 7 6 5 6 6 4 3 4 5 6 7 9 10 11 12 14
15 13 11 11 12 12 13 15 14 12 11 11 12 15 15 14 12 9 7 9 11 12 10 8 8 6 6 6 6 6 7 6 4 5 6 6 6 6 7 9 10 11 11 11 11 11 9 8 8 9 10 12 12 13 13 12 11 10 10 10 11 11 11 11 10 10 10 9 9 8 7 6 5 5 5 2 2 3 4 4 5 7 8 9 11 13
17 15 13 13 12 12 14 15 13 12 12 12 13 14 12 12 11 10 9 10 12 12 10 9 7 6 6 7 7 7 8 6 4 5 7 6 5 5 6 7 9 11 11 11 11 11 11 9 9 8 9 11 11 12 13 13 13 12 11 11 12 12 12 11 10 9 10 10 10 9 8 6 5 4 4 2 1 2 3 3 3 4 6 7 9 12
15 15 15 16 14 12 14 15 14 12 11 11 11 12 13 15 12 10 9 11 12 12 11 9 6 5 6 7 8 8 8 7 6 7 7 6 5 6 6 8 10 11 12 12 11 11 11 11 11 10 10 11 11 12 13 14 14 14 13 13 13 13 13 13 11 9 9 10 11 10 9 7 5 4 4 3 3 3 2 2 2 2 4 6 8 11
13 13 15 17 16 15 15 16 16 15 13 14 13 12 14 13 9 7 8 10 12 12 11 9 8 7 6 7 9 9 9 9 9 8 7 6 6 7 8 10 11 11 11 12 12 12 12 12 12 11 11 12 12 13 14 15 16 16 15 14 15 14 14 14 11 10 9 10 11 11 10 8 6 5 5 4 4 4 4 3 2 1 3 6 8 11
10 11 14 15 17 17 17 17 17 15 14 16 16 14 12 11 10 10 10 10 11 12 11 11 10 9 9 8 9 10 10 10 10 9 7 7 8 9 10 11 11 11 12 13 13 13 13 13 13 13 13 13 13 14 15 16 18 18 17 17 16 16 15 14 11 10 11 11 11 12 11 10 8 7 6 6 6 6 6 5 4 3 3 5 8 10
8 9 13 15 16 15 15 16 16 14 16 18 17 16 17 14 12 14 14 13 13 13 13 13 13 12 12 11 11 11 11 11 12 11 10 11 11 11 11 11 12 13 15 15 14 14 13 14 15 16 15 14 14 14 15 17 19 20 21 20 17 16 17 15 12 12 12 12 12 12 12 11 10 8 8 8 8 8 7 7 6 5 5 6 8 10
10 9 10 12 13 12 13 13 11 11 15 17 15 16 19 18 16 16 15 15 16 15 16 16 15 15 15 14 13 14 14 14 14 13 13 13 13 12 13 13 14 16 17 17 16 14 13 14 16 16 15 15 14 14 16 17 18 20 22 21 18 17 18 16 14 14 14 13 13 13 12 12 11 10 10 9 9 9 9 8 8 7 7 7 8 10
12 13 11 9 9 10 11 11 10 12 15 16 13 14 17 19 21 21 19 18 18 18 18 18 17 17 16 15 15 15 14 14 14 14 14 14 14 14 14 15 16 17 18 18 17 14 14 15 16 16 15 15 15 15 15 16 17 19 21 20 20 20 21 19 17 15 15 14 14 14 13 13 13 12 11 11 11 10 10 10 9 9 8 8 9 10
13 15 14 11 11 12 12 11 12 14 15 14 13 14 15 17 19 21 20 20 19 19 19 19 18 17 16 16 16 16 16 16 16 16 16 16 16 16 16 17 18 19 19 18 18 16 15 15 16 17 16 16 17 17 16 16 16 17 18 20 22 23 23 22 19 17 16 15 15 14 14 14 14 14 13 12 12 12 11 11 10 10 10 9 9 10
16 15 13 12 13 15 16 16 17 16 14 13 14 13 13 14 16 18 19 19 19 19 19 19 19 18 18 17 17 17 18 18 18 18 19 19 19 19 19 19 20 20 20 19 19 18 17 16 17 17 17 17 17 17 17 17 16 16 17 19 22 24 25 24 21 18 18 18 16 15 15 15 16 16 14 14 14 13 12 12 11 11 11 11 11 11
18 17 14 13 13 12 12 14 16 16 15 14 13 12 12 13 14 15 17 17 18 18 18 18 18 19 19 19 19 19 20 20 20 20 20 21 21 21 20 21 21 22 22 22 21 20 19 19 19 19 18 18 18 17 18 18 18 17 17 18 21 24 25 25 22 20 20 19 18 17 16 16 17 17 16 15 15 15 15 14 13 13 13 13 12 12
16 16 15 15 15 14 12 11 10 11 12 13 13 13 13 13 13 15 15 16 17 17 18 18 19 19 19 20 21 21 22 22 23 23 24 24 25 25 24 25 25 25 26 26 25 25 23 22 22 21 21 21 20 20 19 19 18 18 17 17 19 22 24 24 23 22 22 21 19 18 18 17 18 18 18 16 16 16 16 16 15 15 15 14 13 13
14 14 14 16 16 14 14 13 11 10 12 14 15 15 16 15 15 16 16 17 18 19 20 20 21 22 22 23 24 24 25 26 27 27 28 29 30 30 31 31 31 31 31 31 30 29 27 26 25 25 25 24 24 23 22 21 20 19 19 18 19 21 22 23 23 23 23 22 20 19 19 18 19 19 19 18 17 18 17 17 17 17 16 15 15 14
15 15 17 19 17 16 16 15 14 12 10 12 16 17 18 18 19 20 20 21 22 23 24 25 25 27 27 28 28 29 30 31 32 32 33 34 34 35 36 36 37 37 37 37 36 35 33 31 30 29 29 28 27 26 25 24 23 22 21 20 20 21 21 23 24 24 23 22 21 20 19 19 20 20 20 19 18 18 18 18 18 18 17 16 16 15
16 16 18 19 18 18 19 20 21 19 17 18 20 21 21 22 23 23 24 25 27 28 29 30 30 31 33 33 34 35 35 36 37 38 39 39 39 40 41 41 42 42 41 41 41 40 38 37 35 34 33 31 30 29 28 27 26 25 24 23 23 23 22 22 23 24 24 23 22 21 20 20 20 21 20 20 19 19 19 19 18 18 18 17 17 16
Wind_Direction
72 62 56 69 68 72 74 74 81 84 82 82 79 79 81 82 81 85 92 78 85 104 77 53 41 35 202 219 215 195 179 176 176 170 171 232 321 338 348 349 337 319 308 323 343 1 36 63 70 62 50 40 35 32 32 30 19 14 11 3 360 4 7 8 10 12 15 16 15 13 13 13 12 10 9 11 11 10 10 10 10 9 8 8 12 17
65 70 67 71 81 82 77 74 74 79 86 81 78 77 73 78 80 82 80 60 72 89 69 39 21 5 187 208 215 212 201 194 204 205 215 239 254 284 313 314 309 299 299 319 336 353 25 55 66 58 46 36 30 25 23 23 18 11 6 360 359 3 7 10 9 10 13 14 13 14 14 13 12 11 10 11 11 10 11 11 10 8 7 8 13 18
67 72 73 76 82 78 71 69 68 77 88 65 68 76 68 73 91 81 56 39 58 68 32 16 14 43 151 199 204 209 205 211 229 232 239 254 266 272 282 293 299 293 299 319 335 349 22 43 53 50 40 28 23 19 15 16 15 9 3 358 358 3 7 9 8 9 12 13 14 15 15 13 12 11 10 11 11 12 12 11 9 8 7 9 14 19
79 74 74 76 76 72 63 63 69 80 69 45 28 54 67 67 77 74 57 47 52 56 75 33 8 87 108 184 204 252 221 221 241 240 244 257 269 269 270 284 295 299 301 310 336 1 21 40 43 39 31 18 10 9 8 9 10 6 1 357 359 3 7 8 6 8 10 11 15 17 15 12 12 12 11 11 13 13 12 10 9 8 7 9 15 19
82 76 74 72 72 71 59 51 49 51 60 57 34 35 62 70 58 65 72 70 56 52 49 349 189 104 80 119 149 303 312 238 257 261 260 263 270 271 274 284 286 294 297 293 324 14 25 39 37 28 19 4 353 356 359 3 5 2 359 356 359 3 6 7 6 7 7 10 16 17 14 12 11 11 11 12 13 12 12 11 9 8 7 10 15 20
82 75 69 69 66 60 47 40 29 23 55 61 49 39 53 79 77 74 74 70 73 60 37 351 90 99 84 88 111 85 9 28 351 347 294 276 287 289 288 293 293 293 288 270 293 12 31 36 29 19 8 350 340 345 351 358 2 0 358 356 359 3 5 5 5 6 7 11 16 16 14 12 11 11 12 12 13 12 12 11 10 9 8 10 16 21
81 75 66 64 59 39 29 41 29 18 39 52 48 44 53 81 119 100 69 24 63 70 50 19 14 91 102 92 92 105 99 72 28 33 23 298 297 307 304 302 304 298 272 245 292 23 38 34 22 14 2 346 338 341 344 355 359 358 357 357 360 3 5 4 3 6 7 12 16 16 14 12 11 12 12 13 13 13 13 12 11 9 8 10 16 22
82 76 61 54 43 28 34 41 30 23 30 44 47 47 58 82 118 105 90 49 72 86 64 48 9 74 97 90 87 91 95 141 52 26 28 20 334 338 332 317 327 330 291 319 28 38 41 35 24 17 9 354 345 342 344 352 357 356 356 358 1 4 6 3 2 5 7 12 16 16 14 11 11 11 11 13 14 14 15 13 11 10 9 11 15 22
82 78 56 46 26 37 46 29 26 35 31 32 45 53 60 77 103 104 94 68 83 128 71 55 358 36 87 92 104 78 55 95 98 291 313 355 4 11 4 343 351 9 25 37 44 46 44 41 36 29 21 8 356 347 344 348 351 353 356 359 1 5 6 1 1 5 7 12 16 15 13 10 10 11 11 14 14 15 16 13 12 11 9 11 14 21
81 85 72 61 36 45 49 29 31 44 36 31 48 57 55 65 88 94 105 101 93 63 60 42 355 11 78 89 85 60 56 66 57 75 149 258 270 359 7 359 358 14 37 49 51 53 51 49 46 40 31 21 10 358 347 344 348 351 356 1 2 6 7 1 1 4 7 13 16 15 12 9 9 10 11 13 14 15 16 13 12 11 10 11 13 19
65 71 68 70 72 63 55 44 40 42 43 45 53 58 48 62 101 106 110 155 133 72 59 36 14 15 64 70 55 41 41 39 41 61 78 277 252 304 4 9 5 14 35 51 56 53 51 51 49 43 35 27 19 11 0 351 347 352 359 3 3 6 7 1 0 4 7 13 16 15 11 8 8 9 11 13 14 15 15 13 12 11 11 12 12 17
67 73 70 73 81 73 61 54 44 38 41 44 38 326 287 186 169 158 129 93 73 68 49 29 35 26 51 51 37 28 27 4 23 27 287 241 262 296 358 12 12 9 14 34 43 35 37 42 40 34 28 23 19 15 10 4 356 356 2 4 3 6 7 1 360 3 8 15 17 14 11 8 8 9 10 13 14 15 14 12 11 11 11 12 13 15
104 99 94 79 74 73 74 56 37 37 33 23 2 341 349 68 78 77 82 63 63 61 40 23 33 37 61 49 29 21 19 335 259 246 231 228 262 306 357 17 23 17 343 347 357 358 11 17 13 14 14 13 15 14 11 10 5 0 3 2 0 6 7 360 359 3 9 16 17 14 11 9 8 8 10 12 13 14 14 12 11 11 12 12 14 16
123 122 102 67 63 73 72 16 24 41 35 22 18 14 25 41 43 44 53 58 71 65 48 34 0 34 60 47 26 23 17 350 270 247 254 255 278 324 6 20 30 33 16 346 340 343 351 350 346 352 357 3 10 13 11 10 8 3 1 360 357 3 5 358 358 4 11 16 16 13 11 9 8 8 9 12 13 14 14 12 12 11 12 13 14 17
112 112 126 112 87 74 65 44 42 50 38 34 29 22 38 35 17 33 43 37 63 76 58 41 18 38 50 39 25 28 28 23 41 32 347 285 291 336 7 7 20 32 34 23 359 348 341 333 329 333 341 353 3 9 9 8 8 6 0 357 354 357 360 356 357 3 11 16 15 12 11 9 8 8 9 12 13 15 14 12 12 12 12 15 16 17
90 101 146 174 131 72 62 49 43 41 19 36 38 27 41 39 20 39 55 39 44 80 56 38 37 49 61 54 36 34 38 32 31 36 46 55 5 294 331 347 0 18 28 32 19 355 336 323 318 321 330 344 359 6 7 7 7 4 359 354 350 351 354 354 356 3 11 16 14 11 10 10 8 7 10 13 14 16 14 12 12 12 13 16 17 18
197 111 167 204 173 299 329 25 29 39 18 7 22 36 44 47 34 26 54 44 61 81 40 33 46 49 70 62 39 34 42 36 35 42 41 56 34 311 301 322 337 353 9 24 26 6 339 320 311 316 325 337 355 2 3 5 5 3 357 351 346 345 348 350 354 2 10 14 13 11 11 10 8 8 10 13 14 16 15 13 13 13 14 16 18 19
285 152 181 220 234 267 316 19 25 37 30 359 15 33 28 44 51 32 22 23 43 65 44 37 49 39 36 44 32 28 35 34 38 41 16 303 241 261 275 300 313 321 337 3 19 15 355 327 314 317 324 334 348 357 360 2 3 1 357 350 343 338 341 348 353 359 8 13 11 10 11 9 7 9 11 13 15 17 16 14 13 13 14 17 19 20
264 211 189 224 235 256 304 19 23 21 52 55 43 30 11 23 44 33 30 22 19 41 30 21 45 45 36 31 21 20 24 24 31 34 24 359 270 259 254 268 291 304 315 331 353 8 2 340 325 322 328 333 340 350 355 359 1 0 357 349 339 333 336 345 351 356 6 11 9 10 11 10 8 9 11 13 15 17 17 15 14 14 15 18 20 21
245 246 206 215 234 250 279 278 319 9 54 73 68 36 25 22 16 22 35 16 8 23 17 7 22 48 41 28 17 16 14 13 16 21 31 16 306 279 265 261 278 294 303 311 324 341 347 344 334 330 336 337 337 342 348 355 359 358 357 350 338 331 335 344 348 353 5 8 7 9 10 10 9 9 11 13 15 17 17 16 15 15 16 19 21 22
223 246 254 197 228 239 238 249 262 328 1 12 21 359 10 17 358 9 51 19 5 5 6 358 353 40 45 27 16 13 7 9 7 2 25 357 315 308 290 278 281 286 290 299 307 317 326 333 331 330 338 340 338 336 339 348 353 355 356 349 337 331 335 345 346 350 4 6 3 7 10 10 10 9 11 13 14 17 17 16 16 16 18 20 22 23
205 228 252 234 227 239 236 229 231 239 252 300 354 345 349 353 339 340 33 20 359 348 354 350 337 26 44 23 13 11 6 10 7 2 19 339 305 302 294 293 289 281 280 287 296 304 312 319 324 325 329 336 339 335 332 337 345 351 355 348 339 334 337 344 346 350 2 3 359 5 9 11 10 10 11 13 14 17 17 16 16 18 20 22 23 24
208 224 247 257 251 256 251 245 255 252 230 241 286 321 332 337 343 351 358 351 342 336 341 339 334 12 26 9 5 6 2 4 3 2 6 344 323 300 278 283 289 287 286 286 289 295 301 307 316 320 319 326 334 335 330 329 336 345 351 348 342 338 340 346 347 352 0 359 356 3 9 11 11 10 11 12 14 16 17 17 17 19 22 24 25 25
216 223 236 251 250 252 259 263 271 258 232 245 260 254 290 326 338 340 345 336 326 327 333 331 334 2 5 356 358 0 360 0 354 346 346 341 332 313 277 263 270 295 310 300 291 292 297 298 304 312 316 320 326 332 330 325 328 340 347 347 345 342 344 348 348 351 356 354 353 359 7 11 10 10 11 11 13 16 17 17 18 20 24 26 27 26
214 220 234 248 235 219 244 249 245 236 231 249 252 246 260 274 314 327 337 319 313 333 337 323 321 344 348 344 347 352 355 357 351 340 334 330 331 328 300 265 261 294 315 308 298 295 294 290 290 297 307 318 324 330 331 323 322 334 343 346 347 347 347 349 348 348 351 350 350 356 6 11 10 10 11 11 11 15 17 19 19 23 26 28 29 28
215 218 228 248 255 248 256 268 268 237 232 244 240 241 252 240 276 320 323 310 323 345 321 310 313 329 335 333 337 345 343 343 345 341 333 324 326 336 327 278 250 273 288 293 297 295 292 286 282 283 290 307 319 326 331 324 317 329 340 345 349 351 350 349 345 343 346 346 346 354 4 9 10 10 11 10 10 13 18 20 22 26 30 31 31 30
224 223 224 241 263 280 298 315 311 276 253 255 231 222 247 261 262 296 305 310 330 324 308 312 317 318 325 329 333 340 335 332 337 337 332 328 332 340 339 286 234 261 286 293 296 293 290 283 276 273 278 291 303 315 325 322 313 323 336 344 349 353 352 347 341 339 340 341 342 351 2 8 9 10 10 9 8 13 19 22 24 30 34 34 34 33
227 233 235 237 248 263 275 276 271 262 258 264 241 223 245 269 274 282 292 307 323 311 306 325 319 311 318 327 330 333 325 322 332 336 331 335 342 346 342 298 263 285 301 306 303 297 291 283 275 270 270 279 288 301 315 317 306 315 332 342 348 352 352 346 339 335 335 337 339 346 358 7 9 10 9 7 7 13 21 24 27 33 36 37 37 37
226 241 246 237 240 249 253 254 252 249 251 252 251 247 254 270 279 279 285 298 307 301 303 316 313 309 315 320 325 326 315 314 331 340 337 343 350 352 341 325 316 315 314 312 310 305 296 287 280 274 267 271 280 289 301 306 297 302 324 339 344 349 352 346 338 333 331 332 335 342 354 6 9 10 8 5 6 14 23 26 30 35 39 40 41 41
227 242 244 235 242 248 248 249 244 240 248 252 254 259 260 267 275 279 288 296 298 294 293 300 309 312 312 313 317 314 308 314 330 338 342 349 348 334 326 329 326 322 319 316 314 310 303 294 286 283 276 273 276 280 290 298 290 290 311 330 338 344 349 347 339 331 327 328 330 338 352 3 9 10 7 3 6 17 27 29 32 39 43 45 46 46
230 243 245 239 244 246 245 249 246 240 246 252 254 258 262 270 280 286 291 295 298 297 292 296 308 312 307 312 319 313 309 318 328 324 318 325 319 308 320 332 329 321 317 317 316 312 306 298 292 288 283 278 278 279 286 291 283 279 294 314 329 337 343 346 341 330 324 324 326 334 349 1 8 9 6 2 6 21 31 32 37 45 49 50 50 50
232 244 250 244 244 246 240 239 242 243 249 254 256 258 263 273 281 285 284 285 293 298 294 296 303 306 303 314 323 315 307 308 308 294 271 282 295 300 318 332 331 323 314 311 316 316 310 303 297 292 286 284 285 285 287 287 276 271 279 295 314 328 336 342 341 331 321 320 324 331 345 360 7 8 4 1 10 28 36 37 46 53 55 55 54 51
236 243 249 241 245 251 243 236 243 245 251 258 254 250 258 270 276 276 270 270 286 294 287 288 298 297 289 294 317 309 298 287 278 272 267 277 288 300 318 329 334 332 321 310 309 313 313 310 304 299 293 290 290 289 288 284 273 268 272 282 298 315 327 335 337 330 320 317 320 327 340 356 5 7 3 2 16 38 43 46 57 63 61 58 54 49
238 239 239 233 244 254 244 236 246 247 250 255 245 240 254 263 263 267 268 269 282 286 273 270 280 277 265 269 292 302 297 278 265 264 266 276 289 306 320 332 343 344 332 318 312 311 314 314 311 305 299 296 295 295 292 283 276 274 272 276 287 300 314 326 332 328 321 316 317 322 335 351 3 4 2 5 25 47 54 61 69 70 66 59 52 46
238 236 232 229 242 252 242 232 243 248 250 249 244 246 257 265 268 272 273 271 270 262 253 257 267 261 259 278 290 296 292 269 252 250 262 281 297 313 327 342 355 356 344 332 326 323 320 318 317 313 307 303 304 303 298 288 280 275 267 268 278 288 298 313 325 326 322 317 313 317 328 343 357 2 1 10 38 60 69 75 77 74 67 57 48 43
232 231 233 230 233 239 237 234 241 254 255 246 245 252 261 274 286 283 273 262 254 245 242 252 262 259 261 275 281 278 261 239 228 239 269 291 303 318 338 352 358 1 355 346 340 337 330 321 320 318 313 311 311 307 301 293 283 275 267 268 277 283 288 299 312 322 324 319 311 310 319 332 348 355 358 10 52 76 85 88 83 75 64 53 44 38
235 233 235 235 229 230 240 246 248 258 261 253 250 255 262 275 282 274 256 249 244 239 241 253 264 260 255 262 262 245 232 225 231 269 283 291 304 324 348 357 359 0 358 353 349 342 333 322 317 317 315 314 312 307 302 295 285 278 273 273 277 281 285 290 299 312 322 321 311 304 308 321 334 344 349 0 78 96 104 101 86 72 59 46 37 33
238 236 235 236 232 231 244 253 251 253 260 256 244 243 259 279 274 252 245 247 242 241 246 255 264 258 247 250 244 230 230 234 247 272 273 274 297 325 345 353 353 351 348 349 349 343 336 328 318 314 314 313 311 307 301 294 286 280 278 277 277 280 286 287 287 299 316 322 315 303 298 306 316 324 329 312 179 140 132 120 92 67 49 35 28 27
241 238 235 238 239 233 237 245 247 250 257 249 234 241 265 276 262 239 239 240 235 241 248 247 249 250 246 247 241 232 236 244 256 270 266 262 287 313 325 333 336 336 335 337 340 340 337 330 322 315 311 308 305 302 298 291 285 281 278 276 275 278 286 287 279 282 303 319 317 304 293 293 296 300 302 274 222 199 186 164 116 52 30 19 15 18
246 241 235 237 241 236 234 241 248 252 251 244 243 258 268 257 228 218 242 240 231 235 239 235 241 253 251 248 246 243 242 248 260 268 264 264 287 302 312 321 325 327 327 328 331 332 329 325 320 313 305 301 298 295 293 288 284 281 277 276 277 277 282 286 281 277 291 308 314 305 292 284 281 280 279 264 238 226 224 220 220 334 358 359 1 8
242 242 240 240 242 240 236 241 249 252 250 249 251 252 246 229 218 232 247 241 231 231 231 233 245 252 248 246 252 256 256 261 266 267 266 276 290 300 306 313 318 321 323 323 324 324 320 317 314 308 298 292 288 287 285 281 280 280 275 270 270 269 272 279 278 271 277 294 306 303 290 279 273 270 265 259 247 237 240 244 249 279 322 340 351 359
240 240 244 244 245 244 241 243 250 253 251 253 252 246 241 237 239 244 243 237 234 233 236 243 247 246 244 243 246 253 260 266 268 268 272 280 288 295 300 306 313 320 323 322 320 317 311 307 305 302 294 285 281 279 277 275 275 274 271 267 264 263 268 276 275 266 269 283 296 297 289 277 269 264 258 256 251 246 247 253 259 273 299 323 339 350
242 239 247 244 239 239 243 244 246 250 254 257 254 245 241 237 236 240 241 238 237 239 244 247 245 242 243 243 245 252 259 263 265 267 272 279 286 291 297 304 311 317 322 324 321 314 306 301 298 295 290 284 280 276 273 273 272 271 270 269 268 268 271 275 274 266 264 273 287 292 287 275 266 261 257 254 252 250 251 256 262 273 289 309 328 340
244 243 248 245 237 239 243 240 234 241 256 262 255 244 242 239 238 241 242 241 241 241 242 242 241 241 243 243 247 253 257 259 262 266 270 275 281 287 295 303 309 315 320 322 319 312 303 298 295 294 291 288 285 282 277 273 271 270 269 266 265 268 271 273 273 266 260 267 280 288 285 275 265 259 255 253 252 252 252 257 264 272 283 299 318 330
241 241 241 240 246 252 250 244 244 251 259 261 254 247 246 243 240 240 242 242 241 238 236 237 240 242 244 245 248 251 253 257 261 264 268 273 278 284 292 299 305 310 314 316 315 307 299 295 294 294 294 291 290 289 286 281 274 271 268 262 259 261 266 271 272 267 260 264 274 282 282 275 265 259 254 251 251 252 252 256 262 270 280 293 308 321
241 242 244 247 253 256 254 252 256 259 260 258 255 250 245 242 240 239 238 238 237 236 235 237 240 245 249 251 252 254 255 258 261 264 269 273 277 283 289 294 299 302 304 306 306 300 293 291 292 293 294 294 293 291 291 290 284 276 270 264 259 259 263 268 270 266 262 263 269 275 279 274 265 259 255 250 250 251 252 254 260 267 276 287 300 313
247 244 246 250 252 256 259 257 255 255 255 254 252 249 243 239 239 238 236 237 238 239 240 242 245 249 253 255 257 259 260 262 263 266 270 274 277 281 285 289 291 294 296 298 299 295 290 287 287 288 291 293 294 294 293 293 291 285 278 270 264 262 264 268 269 267 264 264 265 269 273 271 264 259 255 251 249 249 250 252 256 263 272 282 293 305
252 252 250 249 249 250 254 254 248 248 252 250 247 248 245 241 239 239 240 243 245 246 248 250 252 255 258 261 263 265 267 268 269 272 275 277 280 283 285 286 288 290 291 293 293 292 288 284 283 284 285 287 290 293 293 292 292 290 286 278 271 267 267 269 269 267 263 261 262 265 269 269 264 258 254 252 249 248 250 252 255 261 269 278 288 298
252 258 255 252 251 250 253 254 248 247 254 253 248 246 247 248 249 250 251 254 256 259 260 261 262 264 266 268 270 272 274 276 276 276 277 279 281 283 285 287 288 289 290 290 290 288 286 284 283 282 282 283 285 287 289 290 290 289 287 282 275 271 268 268 267 266 263 260 260 263 266 267 264 259 255 252 250 249 251 253 255 260 267 274 283 292
256 259 259 259 256 253 253 252 243 236 246 256 252 249 251 255 257 259 262 264 267 269 270 270 271 272 273 274 275 276 278 279 279 279 280 280 281 283 285 286 287 288 289 289 289 288 285 284 283 283 282 282 282 282 284 285 286 287 288 285 280 274 269 267 266 265 263 261 260 261 264 265 262 258 255 253 251 250 251 252 256 260 265 272 280 287
258 258 260 262 260 255 253 251 246 243 247 253 253 253 258 261 261 263 267 270 272 274 275 274 275 277 278 279 279 279 280 280 281 282 281 282 282 283 284 285 285 286 287 287 287 287 286 284 284 283 282 280 279 278 278 278 279 282 285 287 285 279 273 267 264 264 263 260 259 259 262 263 260 256 253 251 250 250 250 252 256 260 264 270 277 283